Location: Chester
(43.2628°N, 72.5951°W)
Time: 00:49:49
(UTC-05:00)

ISS - Pass Details

Date: 28 January 2021
Orbit: 417 x 422 km, 51.6° (Epoch: 07 March)

Event Time Altitude Azimuth Distance (km) Brightness Sun altitude
Rises 19:01:54 0° 302° (WNW) 2,377 0.9 -22.7°
Reaches altitude 10° 19:04:16 10° 317° (NW) 1,511 -0.5 -23.1°
Enters shadow 19:05:41 18° 337° (NNW) 1,104 -1.5 -23.4°
